TYVAK-0130 (48606 NORAD) Tracking and Keplerian Element Data

This shows tracking and keplerian element data for the satellite.

Feedback or suggestion? Click here.




ElementValue
Catalog48606
NameTYVAK-0130
Epoch Orbit2268
Epoch Day287.37351045
Epoch Year2021
RAAN164.7765
Inclination53.0318
Eccentricity0.0015436
Argument of Perigee36.725
Mean Anonmoly323.4789
Mean Motion14.97082342
Decay Rate7.98E-06
L11 48606U 21041BF 21287.37351045 .00000798 00000-0 90867-4 0 9998
L22 48606 53.0318 164.7765 0015436 36.7250 323.4789 14.97082342 22688

Live tracking and technical data element details for TYVAK-0130 (NORAD 48606). TYVAK-0130 can be tracked NOW for your location showing map with azimuth and elevation plus other details from your city location.

Track the satellite on the map from your city or location and see movement details for azimuth, elevation, latitude, longitude, range, height, and movement on the map or in text.







IsCatalogInMostPopularTable: catalog: 48606, numindb: 28
Update: records affected: 1



GetName: 48606 TYVAK-0130

Hit Count: updated at: Tue, 19 Oct 2021 09:10:33 GMT